Saint George's, Grenada

12:31 AM AST on January 24, 2018 (GMT -0400)
True Blue | | Change Station

Elev 69 ft 12.01 °N, 61.77 °W | Updated 13 minutes ago

Clear
Clear
75.8 °F
Feels Like 76 °F
N
0.0
Wind Variable Wind from ESE
Gusts 0.0 mph

Today
High -- | Low -- °F
--% Chance of Precip.
Yesterday
High -- | Low -- °F
Precip. -- in
Pressure 29.92 in
Visibility 6.2 miles
Clouds Few 1800 ft
Heat Index 76 °F
Dew Point 71 °F
Humidity 86%
Rainfall 0.00 in
Snow Depth Not available.
6:32 AM 6:05 PM
Waxing Crescent, 42% visible
METAR TGPY 240400Z 08007KT 9999 FEW018 25/22 Q1013 NOSIG
Pressure 29.92 in
Visibility 6.2 miles
Clouds Few 1800 ft
Heat Index 76 °F
Dew Point 71 °F
Humidity 86%
Rainfall 0.00 in
Snow Depth Not available.
6:32 AM 6:05 PM
Waxing Crescent, 42% visible
METAR TGPY 240400Z 08007KT 9999 FEW018 25/22 Q1013 NOSIG

Get Severe Weather Alerts

Thanks for signing up!

Be on the lookout for a verification email in your inbox.

You'll start receiving the daily forecast at 6 AM.

×

10-Day Weather Forecast

No radar image for this location.
×

Almanac

Astronomy

Jan. 24, 2018 Rise Set
Actual Time
Civil Twilight
Nautical Twilight
Astronomical Twilight
Moon
Length of Visible Light
Length of Day
Tomorrow will be .
, % of the Moon is Illuminated

Today's Extremes

Country Highs Country Lows

Community

WunderPhotos

Category 6

Welcome to Category 6. This is the collective home for Weather Underground's featured writeups by Dr. Jeff Masters (right), Bob Henson (left), Chris Burt, and other regular contributors.

Nearby

Air Quality

  Air Quality AQ Index Pollutant
Not available.

Snow Depth

Station Depth Elevation

Earthquake Activity

City Distance Mag. Time & Date
Minimum magnitude displayed is 2.5.

Coastal Water Temperatures

Place Temperature

Stations

Nearby Weather Stations

Station Location Temp. Windchill Dew Point Humidity Wind Precip. Elev Updated Type